WZZ339 LCLK-LHBP

Flight info

Callsign WZZ339
Flight time 2h 34m
Altitude 30000
Route PHA DCT GENOS DCT PEDER DCT EVENO DCT BENEM UN127 RIKSO DCT ATFIR DCT ERDOM N133 LOMOS DCT PADGU DCT DEGET DCT KEZAL
Aircraft A21N/M-SDE2E3FGHIRWXY/LB1

Departure

Time 2026-05-07 18:17
Airport Larnaca International Airport (LCLK)

Arrival

Time 2026-05-07 20:52
Airport Budapest Liszt Ferenc International Airport (LHBP)
Time Latitude Longitude Altitude Speed Heading
2026-05-07 17:52 34.86790 33.61041 24 ft 0 kts 49°
2026-05-07 18:06 34.86784 33.61032 26 ft 4 kts 48°
2026-05-07 18:06 34.86769 33.61007 25 ft 4 kts 77°
2026-05-07 18:07 34.86759 33.60979 28 ft 4 kts 65°
2026-05-07 18:07 34.86752 33.60950 27 ft 4 kts 101°
2026-05-07 18:07 34.86757 33.60936 24 ft 0 kts 135°
2026-05-07 18:09 34.86748 33.60947 26 ft 4 kts 135°
2026-05-07 18:10 34.86731 33.60968 24 ft 2 kts 132°
2026-05-07 18:10 34.86717 33.60986 24 ft 4 kts 135°
2026-05-07 18:10 34.86694 33.61027 25 ft 8 kts 102°
2026-05-07 18:10 34.86718 33.61093 24 ft 10 kts 39°
2026-05-07 18:11 34.86774 33.61157 24 ft 12 kts 46°
2026-05-07 18:11 34.86814 33.61208 24 ft 13 kts 45°
2026-05-07 18:11 34.86911 33.61325 25 ft 16 kts 44°
2026-05-07 18:11 34.86992 33.61426 25 ft 17 kts 46°
2026-05-07 18:12 34.87082 33.61534 25 ft 19 kts 45°
2026-05-07 18:12 34.87183 33.61657 23 ft 21 kts 45°
2026-05-07 18:12 34.87290 33.61788 23 ft 22 kts 45°
2026-05-07 18:12 34.87404 33.61926 23 ft 24 kts 45°
2026-05-07 18:13 34.87495 33.62038 23 ft 16 kts 45°
2026-05-07 18:13 34.87519 33.62109 23 ft 10 kts 108°
2026-05-07 18:13 34.87510 33.62194 25 ft 12 kts 63°
2026-05-07 18:13 34.87578 33.62280 23 ft 16 kts 44°
2026-05-07 18:14 34.87663 33.62384 22 ft 19 kts 45°
2026-05-07 18:14 34.87769 33.62512 24 ft 23 kts 45°
2026-05-07 18:14 34.87893 33.62664 22 ft 27 kts 45°
2026-05-07 18:14 34.88037 33.62838 22 ft 31 kts 44°
2026-05-07 18:15 34.88198 33.63030 21 ft 33 kts 45°
2026-05-07 18:15 34.88358 33.63229 23 ft 27 kts 46°
2026-05-07 18:15 34.88434 33.63326 21 ft 7 kts 55°
2026-05-07 18:15 34.88438 33.63387 21 ft 9 kts 115°
2026-05-07 18:16 34.88394 33.63448 21 ft 11 kts 135°
2026-05-07 18:16 34.88334 33.63513 21 ft 12 kts 154°
2026-05-07 18:16 34.88270 33.63480 20 ft 10 kts 225°
2026-05-07 18:16 34.88194 33.63389 21 ft 33 kts 224°
2026-05-07 18:17 34.87844 33.62962 23 ft 109 kts 225°
2026-05-07 18:17 34.87143 33.62108 28 ft 172 kts 226°
2026-05-07 18:17 34.86266 33.61075 616 ft 173 kts 225°
2026-05-07 18:17 34.85399 33.60086 1319 ft 173 kts 221°
2026-05-07 18:18 34.84387 33.59231 1903 ft 183 kts 214°
2026-05-07 18:18 34.83311 33.58298 2381 ft 196 kts 224°
2026-05-07 18:18 34.82295 33.57112 2917 ft 209 kts 227°
2026-05-07 18:18 34.81245 33.55804 3479 ft 223 kts 228°
2026-05-07 18:19 34.80102 33.54353 3843 ft 250 kts 228°
2026-05-07 18:19 34.78863 33.52752 4332 ft 270 kts 231°
2026-05-07 18:19 34.77718 33.50906 4994 ft 281 kts 234°
2026-05-07 18:19 34.76515 33.49001 5819 ft 286 kts 232°
2026-05-07 18:20 34.75235 33.47133 6654 ft 290 kts 230°
2026-05-07 18:20 34.73891 33.45280 7468 ft 293 kts 229°
2026-05-07 18:20 34.72957 33.44107 8042 ft 293 kts 222°
2026-05-07 18:20 34.71401 33.42485 8923 ft 294 kts 221°
2026-05-07 18:21 34.69865 33.40826 9790 ft 295 kts 223°
2026-05-07 18:21 34.68042 33.38325 10544 ft 309 kts 237°
2026-05-07 18:21 34.67292 33.36773 10747 ft 321 kts 247°
2026-05-07 18:21 34.66846 33.33142 11092 ft 343 kts 278°
2026-05-07 18:22 34.67245 33.31215 11263 ft 354 kts 292°
2026-05-07 18:22 34.67948 33.29398 11452 ft 365 kts 298°
2026-05-07 18:22 34.69593 33.25682 11796 ft 388 kts 299°
2026-05-07 18:22 34.70855 33.22728 12200 ft 397 kts 298°
2026-05-07 18:23 34.72097 33.19707 12796 ft 401 kts 297°
2026-05-07 18:23 34.73366 33.16670 13381 ft 404 kts 300°
2026-05-07 18:23 34.74769 33.13714 14008 ft 405 kts 301°
2026-05-07 18:23 34.76145 33.10698 14562 ft 408 kts 299°
2026-05-07 18:24 34.77450 33.07625 15135 ft 410 kts 297°
2026-05-07 18:24 34.78716 33.04512 15762 ft 411 kts 297°
2026-05-07 18:24 34.79966 33.01378 16432 ft 412 kts 297°
2026-05-07 18:24 34.81197 32.98266 17106 ft 413 kts 297°
2026-05-07 18:25 34.82445 32.95105 17753 ft 414 kts 297°
2026-05-07 18:25 34.83693 32.91941 18367 ft 416 kts 297°
2026-05-07 18:25 34.84949 32.88752 18885 ft 418 kts 297°
2026-05-07 18:25 34.86208 32.85552 19372 ft 421 kts 297°
2026-05-07 18:26 34.87476 32.82327 19848 ft 423 kts 297°
2026-05-07 18:26 34.88751 32.79079 20328 ft 425 kts 297°
2026-05-07 18:26 34.90031 32.75817 20795 ft 428 kts 297°
2026-05-07 18:26 34.91316 32.72538 21286 ft 430 kts 297°
2026-05-07 18:27 34.92587 32.69291 21751 ft 433 kts 297°
2026-05-07 18:27 34.93889 32.65962 22205 ft 436 kts 297°
2026-05-07 18:27 34.95178 32.62662 22678 ft 439 kts 297°
2026-05-07 18:27 34.96492 32.59297 23161 ft 441 kts 297°
2026-05-07 18:28 34.97815 32.55905 23626 ft 444 kts 297°
2026-05-07 18:28 34.99145 32.52490 24015 ft 446 kts 297°
2026-05-07 18:28 35.00476 32.49069 24403 ft 448 kts 297°
2026-05-07 18:28 35.01812 32.45633 24889 ft 446 kts 297°
2026-05-07 18:29 35.03134 32.42225 25433 ft 444 kts 297°
2026-05-07 18:29 35.04450 32.38831 25978 ft 441 kts 297°
2026-05-07 18:29 35.05784 32.35475 26488 ft 439 kts 298°
2026-05-07 18:29 35.07125 32.32129 27003 ft 437 kts 298°
2026-05-07 18:30 35.08438 32.28792 27519 ft 435 kts 298°
2026-05-07 18:30 35.09733 32.25462 28022 ft 434 kts 298°
2026-05-07 18:30 35.11019 32.22131 28531 ft 432 kts 298°
2026-05-07 18:30 35.12298 32.18813 29045 ft 429 kts 298°
2026-05-07 18:31 35.13570 32.15520 29528 ft 428 kts 298°
2026-05-07 18:31 35.14836 32.12250 29972 ft 427 kts 298°
2026-05-07 18:31 35.16103 32.08955 30164 ft 426 kts 298°
2026-05-07 18:32 35.18629 32.02399 30160 ft 426 kts 298°
2026-05-07 18:32 35.21128 31.95888 30150 ft 426 kts 298°
2026-05-07 18:33 35.23642 31.89333 30154 ft 426 kts 297°
2026-05-07 18:33 35.26153 31.82762 30153 ft 426 kts 297°
2026-05-07 18:34 35.28664 31.76184 30148 ft 426 kts 297°
2026-05-07 18:34 35.31161 31.69610 30142 ft 427 kts 297°
2026-05-07 18:35 35.33675 31.62992 30152 ft 427 kts 297°
2026-05-07 18:35 35.36176 31.56393 30152 ft 427 kts 297°
2026-05-07 18:36 35.38664 31.49821 30147 ft 428 kts 297°
2026-05-07 18:36 35.41165 31.43198 30149 ft 428 kts 297°
2026-05-07 18:37 35.43668 31.36562 30152 ft 429 kts 297°
2026-05-07 18:37 35.46167 31.29914 30149 ft 429 kts 297°
2026-05-07 18:38 35.48667 31.23250 30145 ft 430 kts 297°
2026-05-07 18:38 35.51161 31.16569 30147 ft 431 kts 296°
2026-05-07 18:39 35.53664 31.09879 30139 ft 431 kts 296°
2026-05-07 18:39 35.56158 31.03185 30148 ft 432 kts 296°
2026-05-07 18:40 35.58663 30.96461 30145 ft 432 kts 296°
2026-05-07 18:40 35.61158 30.89743 30140 ft 433 kts 296°
2026-05-07 18:41 35.63656 30.83007 30137 ft 433 kts 296°
2026-05-07 18:41 35.66152 30.76250 30147 ft 433 kts 296°
2026-05-07 18:42 35.68621 30.69523 30140 ft 434 kts 295°
2026-05-07 18:42 35.71104 30.62714 30147 ft 434 kts 295°
2026-05-07 18:43 35.73598 30.55984 30147 ft 434 kts 295°
2026-05-07 18:43 35.76093 30.49212 30139 ft 434 kts 295°
2026-05-07 18:44 35.78575 30.42426 30129 ft 435 kts 295°
2026-05-07 18:44 35.81055 30.35627 30142 ft 435 kts 295°
2026-05-07 18:45 35.83534 30.28833 30141 ft 435 kts 295°
2026-05-07 18:45 35.86006 30.22026 30143 ft 435 kts 294°
2026-05-07 18:46 35.88456 30.15245 30130 ft 435 kts 294°
2026-05-07 18:46 35.90928 30.08432 30144 ft 435 kts 294°
2026-05-07 18:47 35.93393 30.01605 30140 ft 435 kts 294°
2026-05-07 18:47 35.95850 29.94779 30137 ft 435 kts 294°
2026-05-07 18:48 35.98304 29.87953 30150 ft 435 kts 294°
2026-05-07 18:48 36.00751 29.81113 30153 ft 435 kts 294°
2026-05-07 18:49 36.03205 29.74275 30151 ft 435 kts 294°
2026-05-07 18:49 36.05631 29.67485 30156 ft 434 kts 294°
2026-05-07 18:50 36.08064 29.60651 30150 ft 434 kts 294°
2026-05-07 18:50 36.10491 29.53799 30148 ft 434 kts 294°
2026-05-07 18:51 36.12926 29.46955 30160 ft 434 kts 294°
2026-05-07 18:51 36.15349 29.40109 30162 ft 434 kts 294°
2026-05-07 18:52 36.17912 29.33350 30151 ft 434 kts 301°
2026-05-07 18:52 36.19713 29.30375 30160 ft 434 kts 312°
2026-05-07 18:52 36.21920 29.27827 30166 ft 434 kts 318°
2026-05-07 18:53 36.26504 29.23057 30168 ft 434 kts 319°
2026-05-07 18:53 36.31146 29.18225 30072 ft 434 kts 319°
2026-05-07 18:54 36.35770 29.13373 30128 ft 434 kts 319°
2026-05-07 18:54 36.40365 29.08527 30168 ft 434 kts 319°
2026-05-07 18:55 36.44973 29.03664 30172 ft 434 kts 319°
2026-05-07 18:55 36.49554 28.98811 30178 ft 434 kts 319°
2026-05-07 18:56 36.54170 28.93927 30188 ft 434 kts 319°
2026-05-07 18:56 36.58761 28.89063 30195 ft 434 kts 319°
2026-05-07 18:57 36.63369 28.84175 30207 ft 434 kts 319°
2026-05-07 18:57 36.67964 28.79286 30203 ft 435 kts 319°
2026-05-07 18:58 36.72568 28.74395 30203 ft 435 kts 319°
2026-05-07 18:58 36.77115 28.69583 30163 ft 434 kts 319°
2026-05-07 18:59 36.81715 28.64704 30198 ft 435 kts 319°
2026-05-07 18:59 36.86278 28.59847 30153 ft 435 kts 319°
2026-05-07 19:00 36.90936 28.54881 29836 ft 434 kts 319°
2026-05-07 19:00 36.93205 28.52480 29681 ft 436 kts 319°
2026-05-07 19:00 36.95573 28.49944 29814 ft 434 kts 319°
2026-05-07 19:00 36.97860 28.47494 30022 ft 433 kts 319°
2026-05-07 19:01 37.00151 28.45043 30137 ft 434 kts 319°
2026-05-07 19:01 37.04766 28.40078 30183 ft 435 kts 319°
2026-05-07 19:02 37.09339 28.35170 30191 ft 435 kts 319°
2026-05-07 19:02 37.13919 28.30218 30191 ft 436 kts 319°
2026-05-07 19:03 37.18515 28.25243 30191 ft 436 kts 319°
2026-05-07 19:03 37.23115 28.20287 30193 ft 437 kts 319°
2026-05-07 19:04 37.27730 28.15305 30182 ft 437 kts 319°
2026-05-07 19:04 37.31569 28.11155 30187 ft 438 kts 319°
2026-05-07 19:05 37.36166 28.06171 30181 ft 438 kts 319°
2026-05-07 19:05 37.40735 28.01203 30249 ft 436 kts 319°
2026-05-07 19:06 37.45343 27.96208 30218 ft 438 kts 319°
2026-05-07 19:06 37.52269 27.88673 30177 ft 439 kts 319°
2026-05-07 19:07 37.56883 27.83639 30183 ft 438 kts 319°
2026-05-07 19:07 37.61498 27.78597 30165 ft 438 kts 319°
2026-05-07 19:08 37.66101 27.73561 30169 ft 439 kts 319°
2026-05-07 19:08 37.70720 27.68494 30169 ft 439 kts 319°
2026-05-07 19:09 37.75301 27.63461 30173 ft 439 kts 318°
2026-05-07 19:09 37.79906 27.58394 30158 ft 438 kts 318°
2026-05-07 19:10 37.84510 27.53317 30159 ft 438 kts 318°
2026-05-07 19:10 37.89094 27.48255 30162 ft 438 kts 318°
2026-05-07 19:11 37.93683 27.43177 30148 ft 438 kts 318°
2026-05-07 19:11 37.98269 27.38095 30156 ft 438 kts 318°
2026-05-07 19:12 38.02854 27.33005 30161 ft 437 kts 317°
2026-05-07 19:12 38.07424 27.27922 30166 ft 437 kts 317°
2026-05-07 19:13 38.11995 27.22830 30162 ft 436 kts 317°
2026-05-07 19:13 38.16526 27.17774 30173 ft 436 kts 317°
2026-05-07 19:14 38.21097 27.12664 30179 ft 436 kts 317°
2026-05-07 19:14 38.25657 27.07561 30179 ft 436 kts 317°
2026-05-07 19:15 38.30208 27.02453 30169 ft 436 kts 317°
2026-05-07 19:15 38.34770 26.97365 30166 ft 436 kts 317°
2026-05-07 19:16 38.39369 26.92305 30167 ft 436 kts 317°
2026-05-07 19:16 38.43956 26.87223 30151 ft 436 kts 317°
2026-05-07 19:17 38.48534 26.82155 30153 ft 436 kts 317°
2026-05-07 19:17 38.53100 26.77102 30154 ft 436 kts 317°
2026-05-07 19:18 38.57686 26.72010 30145 ft 437 kts 317°
2026-05-07 19:18 38.62272 26.66903 30147 ft 436 kts 317°
2026-05-07 19:19 38.66837 26.61788 30140 ft 436 kts 317°
2026-05-07 19:19 38.71399 26.56691 30147 ft 435 kts 317°
2026-05-07 19:20 38.75951 26.51588 30144 ft 434 kts 317°
2026-05-07 19:20 38.80470 26.46528 30149 ft 433 kts 317°
2026-05-07 19:21 38.85098 26.41567 30148 ft 434 kts 320°
2026-05-07 19:21 38.89888 26.36833 30142 ft 434 kts 320°
2026-05-07 19:22 38.94652 26.32123 30145 ft 434 kts 320°
2026-05-07 19:22 38.99447 26.27397 30143 ft 434 kts 320°
2026-05-07 19:23 39.04228 26.22659 30148 ft 433 kts 320°
2026-05-07 19:23 39.09004 26.17913 30141 ft 433 kts 320°
2026-05-07 19:24 39.13767 26.13173 30144 ft 433 kts 320°
2026-05-07 19:24 39.18496 26.08453 30142 ft 432 kts 320°
2026-05-07 19:25 39.23255 26.03698 30145 ft 433 kts 320°
2026-05-07 19:25 39.28038 25.98908 30147 ft 433 kts 320°
2026-05-07 19:26 39.32767 25.94166 30142 ft 433 kts 320°
2026-05-07 19:26 39.37532 25.89381 30148 ft 433 kts 320°
2026-05-07 19:27 39.42294 25.84583 30135 ft 434 kts 320°
2026-05-07 19:27 39.47060 25.79778 30138 ft 433 kts 320°
2026-05-07 19:28 39.51812 25.74983 30131 ft 433 kts 320°
2026-05-07 19:28 39.56545 25.70201 30130 ft 433 kts 320°
2026-05-07 19:29 39.61292 25.65384 30130 ft 433 kts 320°
2026-05-07 19:29 39.66030 25.60570 30132 ft 433 kts 320°
2026-05-07 19:30 39.70777 25.55745 30127 ft 433 kts 320°
2026-05-07 19:30 39.75523 25.50906 30123 ft 433 kts 320°
2026-05-07 19:31 39.80230 25.46101 30125 ft 433 kts 319°
2026-05-07 19:31 39.84958 25.41265 30120 ft 433 kts 319°
2026-05-07 19:32 39.89694 25.36414 30114 ft 433 kts 319°
2026-05-07 19:32 39.94418 25.31565 30114 ft 432 kts 319°
2026-05-07 19:33 39.99141 25.26707 30113 ft 433 kts 319°
2026-05-07 19:33 40.03867 25.21844 30118 ft 433 kts 319°
2026-05-07 19:34 40.08594 25.16965 30120 ft 433 kts 319°
2026-05-07 19:34 40.13327 25.12067 30120 ft 433 kts 319°
2026-05-07 19:35 40.18018 25.07212 30121 ft 433 kts 319°
2026-05-07 19:35 40.22733 25.02313 30119 ft 432 kts 319°
2026-05-07 19:36 40.27443 24.97418 30121 ft 433 kts 319°
2026-05-07 19:36 40.32163 24.92505 30118 ft 433 kts 319°
2026-05-07 19:37 40.36883 24.87577 30119 ft 433 kts 319°
2026-05-07 19:37 40.41566 24.82678 30115 ft 434 kts 319°
2026-05-07 19:38 40.46285 24.77733 30116 ft 434 kts 319°
2026-05-07 19:38 40.51005 24.72788 30117 ft 434 kts 319°
2026-05-07 19:39 40.55727 24.67823 30117 ft 434 kts 319°
2026-05-07 19:39 40.59649 24.63693 30112 ft 434 kts 319°
2026-05-07 19:40 40.65162 24.57881 30115 ft 434 kts 319°
2026-05-07 19:40 40.69874 24.52899 30115 ft 434 kts 319°
2026-05-07 19:41 40.74580 24.47920 30111 ft 433 kts 319°
2026-05-07 19:41 40.79274 24.42939 30113 ft 433 kts 319°
2026-05-07 19:42 40.83961 24.37953 30115 ft 433 kts 319°
2026-05-07 19:42 40.88621 24.32991 30114 ft 432 kts 319°
2026-05-07 19:43 40.93310 24.27989 30114 ft 433 kts 319°
2026-05-07 19:43 40.97993 24.22978 30115 ft 433 kts 319°
2026-05-07 19:44 41.02679 24.17961 30118 ft 433 kts 319°
2026-05-07 19:44 41.07360 24.12940 30110 ft 433 kts 319°
2026-05-07 19:45 41.12022 24.07936 30115 ft 432 kts 319°
2026-05-07 19:45 41.16688 24.02909 30112 ft 432 kts 318°
2026-05-07 19:46 41.21352 23.97874 30118 ft 432 kts 318°
2026-05-07 19:46 41.26014 23.92834 30118 ft 432 kts 318°
2026-05-07 19:47 41.30675 23.87787 30120 ft 433 kts 318°
2026-05-07 19:47 41.35349 23.82714 30116 ft 433 kts 318°
2026-05-07 19:48 41.40302 23.78159 30122 ft 438 kts 332°
2026-05-07 19:48 41.43155 23.76820 30124 ft 444 kts 343°
2026-05-07 19:48 41.46199 23.76057 30140 ft 446 kts 347°
2026-05-07 19:49 41.52347 23.74749 30136 ft 447 kts 347°
2026-05-07 19:49 41.58482 23.73402 30128 ft 447 kts 347°
2026-05-07 19:50 41.63571 23.72268 30139 ft 447 kts 347°
2026-05-07 19:50 41.69728 23.70888 30140 ft 447 kts 347°
2026-05-07 19:51 41.75871 23.69511 30151 ft 447 kts 347°
2026-05-07 19:51 41.82004 23.68136 30143 ft 447 kts 347°
2026-05-07 19:52 41.88136 23.66754 30143 ft 447 kts 347°
2026-05-07 19:52 41.94271 23.65371 30135 ft 447 kts 347°
2026-05-07 19:53 42.00413 23.63987 30140 ft 447 kts 347°
2026-05-07 19:53 42.06548 23.62598 30136 ft 447 kts 347°
2026-05-07 19:54 42.12681 23.61207 30133 ft 447 kts 347°
2026-05-07 19:54 42.18820 23.59809 30130 ft 448 kts 347°
2026-05-07 19:55 42.24937 23.58417 30134 ft 449 kts 347°
2026-05-07 19:55 42.31103 23.57012 30129 ft 449 kts 347°
2026-05-07 19:56 42.37269 23.55604 30121 ft 449 kts 347°
2026-05-07 19:56 42.43388 23.54202 30117 ft 450 kts 347°
2026-05-07 19:57 42.49569 23.52784 30119 ft 450 kts 347°
2026-05-07 19:57 42.55749 23.51361 30119 ft 450 kts 347°
2026-05-07 19:58 42.61936 23.49938 30116 ft 451 kts 347°
2026-05-07 19:58 42.68090 23.48517 30112 ft 451 kts 347°
2026-05-07 19:59 42.74279 23.47087 30115 ft 450 kts 347°
2026-05-07 19:59 42.80462 23.45654 30109 ft 450 kts 347°
2026-05-07 20:00 42.86636 23.44221 30106 ft 450 kts 347°
2026-05-07 20:00 42.92779 23.42791 30096 ft 450 kts 347°
2026-05-07 20:01 42.98964 23.41354 30093 ft 450 kts 347°
2026-05-07 20:01 43.05147 23.39909 30098 ft 450 kts 347°
2026-05-07 20:02 43.11336 23.38461 30070 ft 451 kts 347°
2026-05-07 20:02 43.17479 23.37023 30082 ft 451 kts 347°
2026-05-07 20:03 43.23657 23.35570 30064 ft 451 kts 347°
2026-05-07 20:03 43.29850 23.34109 30080 ft 451 kts 347°
2026-05-07 20:04 43.36039 23.32648 30076 ft 451 kts 347°
2026-05-07 20:04 43.42231 23.31182 30057 ft 451 kts 347°
2026-05-07 20:05 43.48427 23.29711 30052 ft 452 kts 347°
2026-05-07 20:05 43.54665 23.28555 30057 ft 454 kts 352°
2026-05-07 20:06 43.60968 23.27782 30056 ft 454 kts 352°
2026-05-07 20:06 43.67277 23.27003 30054 ft 455 kts 352°
2026-05-07 20:07 43.73548 23.26224 30051 ft 456 kts 352°
2026-05-07 20:07 43.79880 23.25443 30052 ft 457 kts 352°
2026-05-07 20:08 43.85964 23.23310 30048 ft 450 kts 333°
2026-05-07 20:08 43.91605 23.19535 30052 ft 450 kts 332°
2026-05-07 20:09 43.97237 23.15744 30050 ft 450 kts 332°
2026-05-07 20:10 44.05718 23.10069 30045 ft 451 kts 332°
2026-05-07 20:10 44.11370 23.06268 30049 ft 451 kts 332°
2026-05-07 20:11 44.16990 23.02498 30049 ft 451 kts 332°
2026-05-07 20:11 44.22644 22.98688 30050 ft 451 kts 332°
2026-05-07 20:12 44.28289 22.94879 30051 ft 451 kts 332°
2026-05-07 20:12 44.33952 22.91050 30056 ft 451 kts 332°
2026-05-07 20:13 44.39601 22.87223 30054 ft 452 kts 331°
2026-05-07 20:13 44.45268 22.83369 30053 ft 452 kts 331°
2026-05-07 20:14 44.50921 22.79511 30054 ft 452 kts 331°
2026-05-07 20:14 44.56592 22.75634 30058 ft 452 kts 331°
2026-05-07 20:15 44.62209 22.71804 30058 ft 452 kts 331°
2026-05-07 20:15 44.67861 22.67926 30066 ft 452 kts 331°
2026-05-07 20:16 44.73520 22.64024 30070 ft 453 kts 331°
2026-05-07 20:16 44.79157 22.60065 30076 ft 452 kts 329°
2026-05-07 20:17 44.84699 22.55879 30079 ft 452 kts 329°
2026-05-07 20:17 44.90236 22.51676 30075 ft 453 kts 328°
2026-05-07 20:18 44.95788 22.47449 30087 ft 453 kts 328°
2026-05-07 20:18 45.01343 22.43211 30079 ft 454 kts 328°
2026-05-07 20:19 45.06862 22.38995 30079 ft 454 kts 328°
2026-05-07 20:19 45.12434 22.34722 30075 ft 455 kts 328°
2026-05-07 20:20 45.17999 22.30451 30077 ft 455 kts 328°
2026-05-07 20:20 45.23568 22.26167 30074 ft 456 kts 328°
2026-05-07 20:21 45.29159 22.21864 30064 ft 457 kts 328°
2026-05-07 20:21 45.34743 22.17544 30068 ft 457 kts 328°
2026-05-07 20:22 45.40301 22.13233 30060 ft 458 kts 328°
2026-05-07 20:22 45.45897 22.08893 30063 ft 458 kts 328°
2026-05-07 20:23 45.51500 22.04531 30059 ft 459 kts 328°
2026-05-07 20:23 45.57116 22.00143 30058 ft 460 kts 327°
2026-05-07 20:24 45.62743 21.95752 30051 ft 461 kts 327°
2026-05-07 20:24 45.68336 21.91360 30046 ft 461 kts 327°
2026-05-07 20:25 45.73972 21.86934 30045 ft 462 kts 327°
2026-05-07 20:25 45.79614 21.82497 30040 ft 463 kts 327°
2026-05-07 20:26 45.85279 21.78027 30038 ft 465 kts 327°
2026-05-07 20:26 45.90940 21.73551 30035 ft 466 kts 327°
2026-05-07 20:27 45.96633 21.69034 30025 ft 467 kts 327°
2026-05-07 20:27 46.02332 21.64506 30036 ft 468 kts 327°
2026-05-07 20:28 46.08037 21.59965 30044 ft 469 kts 327°
2026-05-07 20:28 46.13721 21.55424 30043 ft 470 kts 327°
2026-05-07 20:29 46.19450 21.50844 30051 ft 470 kts 327°
2026-05-07 20:29 46.25181 21.46245 30055 ft 471 kts 327°
2026-05-07 20:30 46.30908 21.41630 30049 ft 472 kts 327°
2026-05-07 20:30 46.36646 21.37013 30043 ft 472 kts 327°
2026-05-07 20:31 46.42356 21.32398 30043 ft 473 kts 327°
2026-05-07 20:31 46.48081 21.27686 30030 ft 471 kts 323°
2026-05-07 20:31 46.50633 21.24757 30030 ft 465 kts 311°
2026-05-07 20:32 46.52904 21.21346 30039 ft 463 kts 309°
2026-05-07 20:32 46.57271 21.14536 30029 ft 463 kts 308°
2026-05-07 20:33 46.61405 21.07434 29676 ft 454 kts 299°
2026-05-07 20:33 46.63091 21.03582 28871 ft 451 kts 297°
2026-05-07 20:33 46.64753 20.99716 27933 ft 451 kts 297°
2026-05-07 20:33 46.66436 20.95852 26968 ft 452 kts 298°
2026-05-07 20:34 46.68137 20.91983 25999 ft 454 kts 298°
2026-05-07 20:34 46.69849 20.88111 25040 ft 454 kts 298°
2026-05-07 20:34 46.71558 20.84248 24115 ft 454 kts 298°
2026-05-07 20:34 46.73266 20.80367 23197 ft 452 kts 298°
2026-05-07 20:35 46.74962 20.76508 22297 ft 449 kts 299°
2026-05-07 20:35 46.76641 20.72704 21604 ft 446 kts 299°
2026-05-07 20:35 46.78309 20.68930 20943 ft 438 kts 299°
2026-05-07 20:35 46.79945 20.65207 20154 ft 432 kts 299°
2026-05-07 20:36 46.81010 20.62775 19683 ft 428 kts 300°
2026-05-07 20:36 46.83120 20.57960 18438 ft 420 kts 300°
2026-05-07 20:36 46.84668 20.54423 17548 ft 412 kts 300°
2026-05-07 20:36 46.86197 20.50925 16888 ft 404 kts 300°
2026-05-07 20:37 46.87748 20.47364 16339 ft 424 kts 300°
2026-05-07 20:37 46.89330 20.43727 15730 ft 422 kts 300°
2026-05-07 20:37 46.90379 20.41326 15306 ft 420 kts 300°
2026-05-07 20:37 46.91943 20.37731 14724 ft 419 kts 300°
2026-05-07 20:38 46.93500 20.34153 14129 ft 411 kts 300°
2026-05-07 20:38 46.95016 20.30663 13505 ft 402 kts 300°
2026-05-07 20:38 46.96500 20.27232 12842 ft 398 kts 300°
2026-05-07 20:38 46.97974 20.23817 12187 ft 395 kts 300°
2026-05-07 20:39 46.99422 20.20465 11735 ft 382 kts 300°
2026-05-07 20:39 47.00814 20.17257 11389 ft 361 kts 300°
2026-05-07 20:39 47.02117 20.14251 11053 ft 338 kts 300°
2026-05-07 20:39 47.03335 20.11429 10747 ft 317 kts 300°
2026-05-07 20:40 47.04476 20.08773 10407 ft 300 kts 299°
2026-05-07 20:40 47.05561 20.06247 10045 ft 285 kts 299°
2026-05-07 20:40 47.06598 20.03832 9852 ft 280 kts 299°
2026-05-07 20:40 47.07642 20.01392 9594 ft 281 kts 299°
2026-05-07 20:41 47.08682 19.98966 9226 ft 281 kts 299°
2026-05-07 20:41 47.09726 19.96530 8845 ft 282 kts 299°
2026-05-07 20:41 47.10765 19.94104 8470 ft 278 kts 299°
2026-05-07 20:41 47.11777 19.91731 8103 ft 273 kts 299°
2026-05-07 20:42 47.12790 19.89362 7764 ft 273 kts 299°
2026-05-07 20:42 47.13797 19.87004 7429 ft 272 kts 299°
2026-05-07 20:42 47.14803 19.84642 7081 ft 273 kts 299°
2026-05-07 20:42 47.15807 19.82287 6729 ft 270 kts 299°
2026-05-07 20:43 47.16780 19.79998 6361 ft 266 kts 299°
2026-05-07 20:43 47.17757 19.77700 5984 ft 264 kts 299°
2026-05-07 20:43 47.18728 19.75420 5623 ft 264 kts 299°
2026-05-07 20:43 47.19701 19.73131 5278 ft 263 kts 299°
2026-05-07 20:44 47.20665 19.70857 4942 ft 262 kts 299°
2026-05-07 20:44 47.21625 19.68596 4644 ft 257 kts 299°
2026-05-07 20:44 47.22549 19.66417 4470 ft 246 kts 299°
2026-05-07 20:44 47.23431 19.64336 4316 ft 234 kts 299°
2026-05-07 20:45 47.24276 19.62341 4190 ft 221 kts 299°
2026-05-07 20:45 47.25067 19.60471 4036 ft 208 kts 298°
2026-05-07 20:45 47.25802 19.58717 3945 ft 196 kts 298°
2026-05-07 20:45 47.26597 19.56825 3985 ft 233 kts 299°
2026-05-07 20:46 47.27429 19.54857 3991 ft 218 kts 299°
2026-05-07 20:46 47.28192 19.53048 3975 ft 198 kts 299°
2026-05-07 20:46 47.28959 19.51373 3973 ft 199 kts 303°
2026-05-07 20:46 47.29751 19.49858 3976 ft 199 kts 306°
2026-05-07 20:47 47.30603 19.48380 3907 ft 182 kts 308°
2026-05-07 20:47 47.31400 19.47001 3698 ft 172 kts 308°
2026-05-07 20:47 47.32184 19.45714 3467 ft 165 kts 308°
2026-05-07 20:47 47.32937 19.44496 3236 ft 155 kts 309°
2026-05-07 20:48 47.33650 19.43346 3011 ft 152 kts 309°
2026-05-07 20:48 47.34365 19.42193 2816 ft 152 kts 309°
2026-05-07 20:48 47.35077 19.41047 2617 ft 151 kts 310°
2026-05-07 20:48 47.35787 19.39902 2416 ft 151 kts 310°
2026-05-07 20:49 47.36495 19.38761 2219 ft 150 kts 310°
2026-05-07 20:49 47.37194 19.37635 2053 ft 142 kts 310°
2026-05-07 20:49 47.37828 19.36613 1857 ft 133 kts 310°
2026-05-07 20:49 47.38451 19.35609 1662 ft 133 kts 310°
2026-05-07 20:50 47.39074 19.34604 1471 ft 133 kts 310°
2026-05-07 20:50 47.39695 19.33594 1275 ft 133 kts 310°
2026-05-07 20:50 47.40322 19.32583 1063 ft 134 kts 311°
2026-05-07 20:50 47.40946 19.31568 857 ft 134 kts 310°
2026-05-07 20:51 47.41575 19.30545 699 ft 135 kts 311°
2026-05-07 20:51 47.42211 19.29521 532 ft 135 kts 311°
2026-05-07 20:51 47.42811 19.28551 457 ft 116 kts 312°
2026-05-07 20:51 47.43267 19.27819 463 ft 77 kts 313°
2026-05-07 20:52 47.43563 19.27340 475 ft 55 kts 313°
2026-05-07 20:52 47.43805 19.26950 476 ft 49 kts 312°
2026-05-07 20:52 47.43977 19.26676 475 ft 32 kts 311°
2026-05-07 20:52 47.44063 19.26504 477 ft 18 kts 285°
2026-05-07 20:53 47.44041 19.26328 469 ft 18 kts 232°
2026-05-07 20:53 47.43950 19.26201 464 ft 19 kts 222°
2026-05-07 20:53 47.43850 19.26067 463 ft 20 kts 222°
2026-05-07 20:53 47.43741 19.25920 461 ft 22 kts 222°
2026-05-07 20:54 47.43623 19.25762 463 ft 24 kts 222°
2026-05-07 20:54 47.43502 19.25599 463 ft 19 kts 222°
2026-05-07 20:54 47.43408 19.25473 463 ft 10 kts 222°
2026-05-07 20:54 47.43356 19.25429 463 ft 10 kts 176°
2026-05-07 20:55 47.43298 19.25505 463 ft 13 kts 130°
2026-05-07 20:55 47.43234 19.25608 463 ft 15 kts 133°
2026-05-07 20:55 47.43165 19.25721 463 ft 11 kts 131°
2026-05-07 20:55 47.43133 19.25791 463 ft 6 kts 86°
2026-05-07 20:56 47.43159 19.25844 463 ft 6 kts 41°
2026-05-07 20:56 47.43179 19.25870 463 ft 2 kts 43°
2026-05-07 20:56 47.43188 19.25882 463 ft 0 kts 43°